Year,Month,Day,Hour,Minute,Value (Times are PST for temperature in C)
2020,07,31,00,00,21.10
2020,07,31,00,01,21.10
2020,07,31,00,02,21.00
2020,07,31,00,03,21.00
2020,07,31,00,04,21.00
2020,07,31,00,05,20.90
2020,07,31,00,06,20.90
2020,07,31,00,07,20.90
2020,07,31,00,08,20.90
2020,07,31,00,09,20.90
2020,07,31,00,10,20.80
2020,07,31,00,11,20.80
2020,07,31,00,12,20.80
2020,07,31,00,13,20.80
2020,07,31,00,14,20.70
2020,07,31,00,15,20.70
2020,07,31,00,16,20.70
2020,07,31,00,17,20.70
2020,07,31,00,18,20.60
2020,07,31,00,19,20.60
2020,07,31,00,20,20.60
2020,07,31,00,21,20.50
2020,07,31,00,22,20.50
2020,07,31,00,23,20.50
2020,07,31,00,24,20.50
2020,07,31,00,25,20.40
2020,07,31,00,26,20.40
2020,07,31,00,27,20.40
2020,07,31,00,28,20.40
2020,07,31,00,29,20.30
2020,07,31,00,30,20.30
2020,07,31,00,31,20.20
2020,07,31,00,32,20.20
2020,07,31,00,33,20.20
2020,07,31,00,34,20.20
2020,07,31,00,35,20.10
2020,07,31,00,36,20.10
2020,07,31,00,37,20.10
2020,07,31,00,38,20.10
2020,07,31,00,39,20.00
2020,07,31,00,40,20.00
2020,07,31,00,41,19.90
2020,07,31,00,42,19.90
2020,07,31,00,43,19.90
2020,07,31,00,44,19.90
2020,07,31,00,45,19.80
2020,07,31,00,46,19.80
2020,07,31,00,47,19.80
2020,07,31,00,48,19.80
2020,07,31,00,49,19.80
2020,07,31,00,50,19.80
2020,07,31,00,51,19.70
2020,07,31,00,52,19.70
2020,07,31,00,53,19.80
2020,07,31,00,54,19.70
2020,07,31,00,55,19.70
2020,07,31,00,56,19.70
2020,07,31,00,57,19.70
2020,07,31,00,58,19.80
2020,07,31,00,59,19.70
2020,07,31,01,00,19.70
2020,07,31,01,01,19.70
2020,07,31,01,02,19.70
2020,07,31,01,03,19.70
2020,07,31,01,04,19.70
2020,07,31,01,05,19.70
2020,07,31,01,06,19.60
2020,07,31,01,07,19.60
2020,07,31,01,08,19.60
2020,07,31,01,09,19.60
2020,07,31,01,10,19.60
2020,07,31,01,11,19.60
2020,07,31,01,12,19.60
2020,07,31,01,13,19.60
2020,07,31,01,14,19.60
2020,07,31,01,15,19.60
2020,07,31,01,16,19.50
2020,07,31,01,17,19.50
2020,07,31,01,18,19.50
2020,07,31,01,19,19.50
2020,07,31,01,20,19.50
2020,07,31,01,21,19.50
2020,07,31,01,22,19.50
2020,07,31,01,23,19.50
2020,07,31,01,24,19.50
2020,07,31,01,25,19.50
2020,07,31,01,26,19.50
2020,07,31,01,27,19.40
2020,07,31,01,28,19.40
2020,07,31,01,29,19.40
2020,07,31,01,30,19.40
2020,07,31,01,31,19.40
2020,07,31,01,32,19.40
2020,07,31,01,33,19.30
2020,07,31,01,34,19.30
2020,07,31,01,35,19.30
2020,07,31,01,36,19.30
2020,07,31,01,37,19.30
2020,07,31,01,38,19.20
2020,07,31,01,39,19.30
2020,07,31,01,40,19.20
2020,07,31,01,41,19.20
2020,07,31,01,42,19.20
2020,07,31,01,43,19.20
2020,07,31,01,44,19.20
2020,07,31,01,45,19.20
2020,07,31,01,46,19.20
2020,07,31,01,47,19.20
2020,07,31,01,48,19.10
2020,07,31,01,49,19.10
2020,07,31,01,50,19.10
2020,07,31,01,51,19.10
2020,07,31,01,52,19.10
2020,07,31,01,53,19.10
2020,07,31,01,54,19.10
2020,07,31,01,55,19.10
2020,07,31,01,56,19.00
2020,07,31,01,57,19.00
2020,07,31,01,58,19.00
2020,07,31,01,59,18.90
2020,07,31,02,00,18.90
2020,07,31,02,01,18.90
2020,07,31,02,02,18.90
2020,07,31,02,03,18.80
2020,07,31,02,04,18.80
2020,07,31,02,05,18.80
2020,07,31,02,06,18.80
2020,07,31,02,07,18.80
2020,07,31,02,08,18.80
2020,07,31,02,09,18.70
2020,07,31,02,10,18.70
2020,07,31,02,11,18.70
2020,07,31,02,12,18.70
2020,07,31,02,13,18.70
2020,07,31,02,14,18.70
2020,07,31,02,15,18.60
2020,07,31,02,16,18.60
2020,07,31,02,17,18.60
2020,07,31,02,18,18.60
2020,07,31,02,19,18.60
2020,07,31,02,20,18.50
2020,07,31,02,21,18.50
2020,07,31,02,22,18.50
2020,07,31,02,23,18.40
2020,07,31,02,24,18.40
2020,07,31,02,25,18.40
2020,07,31,02,26,18.40
2020,07,31,02,27,18.40
2020,07,31,02,28,18.40
2020,07,31,02,29,18.40
2020,07,31,02,30,18.40
2020,07,31,02,31,18.30
2020,07,31,02,32,18.30
2020,07,31,02,33,18.30
2020,07,31,02,34,18.30
2020,07,31,02,35,18.30
2020,07,31,02,36,18.30
2020,07,31,02,37,18.20
2020,07,31,02,38,18.20
2020,07,31,02,39,18.20
2020,07,31,02,40,18.20
2020,07,31,02,41,18.20
2020,07,31,02,42,18.20
2020,07,31,02,43,18.20
2020,07,31,02,44,18.20
2020,07,31,02,45,18.20
2020,07,31,02,46,18.20
2020,07,31,02,47,18.20
2020,07,31,02,48,18.20
2020,07,31,02,49,18.20
2020,07,31,02,50,18.10
2020,07,31,02,51,18.10
2020,07,31,02,52,18.10
2020,07,31,02,53,18.10
2020,07,31,02,54,18.10
2020,07,31,02,55,18.10
2020,07,31,02,56,18.10
2020,07,31,02,57,18.10
2020,07,31,02,58,18.10
2020,07,31,02,59,18.10
2020,07,31,03,00,18.10
2020,07,31,03,01,18.20
2020,07,31,03,02,18.20
2020,07,31,03,03,18.20
2020,07,31,03,04,18.10
2020,07,31,03,05,18.10
2020,07,31,03,06,18.20
2020,07,31,03,07,18.20
2020,07,31,03,08,18.20
2020,07,31,03,09,18.20
2020,07,31,03,10,18.20
2020,07,31,03,11,18.30
2020,07,31,03,12,18.30
2020,07,31,03,13,18.30
2020,07,31,03,14,18.40
2020,07,31,03,15,18.40
2020,07,31,03,16,18.40
2020,07,31,03,17,18.40
2020,07,31,03,18,18.40
2020,07,31,03,19,18.50
2020,07,31,03,20,18.50
2020,07,31,03,21,18.50
2020,07,31,03,22,18.60
2020,07,31,03,23,18.60
2020,07,31,03,24,18.60
2020,07,31,03,25,18.60
2020,07,31,03,26,18.60
2020,07,31,03,27,18.70
2020,07,31,03,28,18.70
2020,07,31,03,29,18.80
2020,07,31,03,30,18.80
2020,07,31,03,31,18.90
2020,07,31,03,32,18.90
2020,07,31,03,33,18.90
2020,07,31,03,34,18.90
2020,07,31,03,35,18.90
2020,07,31,03,36,18.90
2020,07,31,03,37,18.90
2020,07,31,03,38,18.90
2020,07,31,03,39,18.90
2020,07,31,03,40,18.90
2020,07,31,03,41,18.90
2020,07,31,03,42,19.00
2020,07,31,03,43,19.00
2020,07,31,03,44,19.00
2020,07,31,03,45,19.00
2020,07,31,03,46,19.00
2020,07,31,03,47,19.10
2020,07,31,03,48,19.10
2020,07,31,03,49,19.20
2020,07,31,03,50,19.20
2020,07,31,03,51,19.30
2020,07,31,03,52,19.30
2020,07,31,03,53,19.40
2020,07,31,03,54,19.40
2020,07,31,03,55,19.40
2020,07,31,03,56,19.40
2020,07,31,03,57,19.40
2020,07,31,03,58,19.40
2020,07,31,03,59,19.30
2020,07,31,04,00,19.30
2020,07,31,04,01,19.30
2020,07,31,04,02,19.30
2020,07,31,04,03,19.30
2020,07,31,04,04,19.30
2020,07,31,04,05,19.30
2020,07,31,04,06,19.30
2020,07,31,04,07,19.30
2020,07,31,04,08,19.20
2020,07,31,04,09,19.20
2020,07,31,04,10,19.10
2020,07,31,04,11,19.10
2020,07,31,04,12,19.00
2020,07,31,04,13,19.00
2020,07,31,04,14,18.90
2020,07,31,04,15,18.90
2020,07,31,04,16,18.90
2020,07,31,04,17,18.80
2020,07,31,04,18,18.80
2020,07,31,04,19,18.80
2020,07,31,04,20,18.80
2020,07,31,04,21,18.70
2020,07,31,04,22,18.70
2020,07,31,04,23,18.70
2020,07,31,04,24,18.70
2020,07,31,04,25,18.70
2020,07,31,04,26,18.60
2020,07,31,04,27,18.60
2020,07,31,04,28,18.60
2020,07,31,04,29,18.60
2020,07,31,04,30,18.60
2020,07,31,04,31,18.50
2020,07,31,04,32,18.50
2020,07,31,04,33,18.50
2020,07,31,04,34,18.50
2020,07,31,04,35,18.40
2020,07,31,04,36,18.40
2020,07,31,04,37,18.40
2020,07,31,04,38,18.40
2020,07,31,04,39,18.40
2020,07,31,04,40,18.40
2020,07,31,04,41,18.40
2020,07,31,04,42,18.30
2020,07,31,04,43,18.30
2020,07,31,04,44,18.30
2020,07,31,04,45,18.30
2020,07,31,04,46,18.30
2020,07,31,04,47,18.30
2020,07,31,04,48,18.30
2020,07,31,04,49,18.30
2020,07,31,04,50,18.30
2020,07,31,04,51,18.30
2020,07,31,04,52,18.30
2020,07,31,04,53,18.30
2020,07,31,04,54,18.30
2020,07,31,04,55,18.40
2020,07,31,04,56,18.30
2020,07,31,04,57,18.30
2020,07,31,04,58,18.30
2020,07,31,04,59,18.30
2020,07,31,05,00,18.30
2020,07,31,05,01,18.30
2020,07,31,05,02,18.30
2020,07,31,05,03,18.20
2020,07,31,05,04,18.20
2020,07,31,05,05,18.20
2020,07,31,05,06,18.20
2020,07,31,05,07,18.20
2020,07,31,05,08,18.20
2020,07,31,05,09,18.10
2020,07,31,05,10,18.10
2020,07,31,05,11,18.10
2020,07,31,05,12,18.10
2020,07,31,05,13,18.10
2020,07,31,05,14,18.00
2020,07,31,05,15,18.00
2020,07,31,05,16,18.00
2020,07,31,05,17,18.00
2020,07,31,05,18,18.00
2020,07,31,05,19,18.00
2020,07,31,05,20,18.00
2020,07,31,05,21,18.00
2020,07,31,05,22,18.00
2020,07,31,05,23,17.90
2020,07,31,05,24,17.90
2020,07,31,05,25,17.90
2020,07,31,05,26,17.90
2020,07,31,05,27,17.90
2020,07,31,05,28,17.90
2020,07,31,05,29,17.90
2020,07,31,05,30,17.80
2020,07,31,05,31,17.80
2020,07,31,05,32,17.80
2020,07,31,05,33,17.80
2020,07,31,05,34,17.70
2020,07,31,05,35,17.70
2020,07,31,05,36,17.70
2020,07,31,05,37,17.70
2020,07,31,05,38,17.70
2020,07,31,05,39,17.70
2020,07,31,05,40,17.60
2020,07,31,05,41,17.60
2020,07,31,05,42,17.60
2020,07,31,05,43,17.60
2020,07,31,05,44,17.50
2020,07,31,05,45,17.50
2020,07,31,05,46,17.50
2020,07,31,05,47,17.40
2020,07,31,05,48,17.40
2020,07,31,05,49,17.40
2020,07,31,05,50,17.40
2020,07,31,05,51,17.40
2020,07,31,05,52,17.40
2020,07,31,05,53,17.30
2020,07,31,05,54,17.30
2020,07,31,05,55,17.30
2020,07,31,05,56,17.30
2020,07,31,05,57,17.30
2020,07,31,05,58,17.30
2020,07,31,05,59,17.30
2020,07,31,06,00,17.30
2020,07,31,06,01,17.30
2020,07,31,06,02,17.30
2020,07,31,06,03,17.30
2020,07,31,06,04,17.30
2020,07,31,06,05,17.30
2020,07,31,06,06,17.30
2020,07,31,06,07,17.30
2020,07,31,06,08,17.30
2020,07,31,06,09,17.30
2020,07,31,06,10,17.30
2020,07,31,06,11,17.30
2020,07,31,06,12,17.20
2020,07,31,06,13,17.20
2020,07,31,06,14,17.20
2020,07,31,06,15,17.20
2020,07,31,06,16,17.20
2020,07,31,06,17,17.20
2020,07,31,06,18,17.20
2020,07,31,06,19,17.20
2020,07,31,06,20,17.20
2020,07,31,06,21,17.20
2020,07,31,06,22,17.20
2020,07,31,06,23,17.30
2020,07,31,06,24,17.30
2020,07,31,06,25,17.30
2020,07,31,06,26,17.30
2020,07,31,06,27,17.30
2020,07,31,06,28,17.30
2020,07,31,06,29,17.30
2020,07,31,06,30,17.30
2020,07,31,06,31,17.30
2020,07,31,06,32,17.30
2020,07,31,06,33,17.30
2020,07,31,06,34,17.30
2020,07,31,06,35,17.30
2020,07,31,06,36,17.30
2020,07,31,06,37,17.30
2020,07,31,06,38,17.30
2020,07,31,06,39,17.40
2020,07,31,06,40,17.40
2020,07,31,06,41,17.40
2020,07,31,06,42,17.40
2020,07,31,06,43,17.40
2020,07,31,06,44,17.40
2020,07,31,06,45,17.40
2020,07,31,06,46,17.40
2020,07,31,06,47,17.40
2020,07,31,06,48,17.40
2020,07,31,06,49,17.40
2020,07,31,06,50,17.40
2020,07,31,06,51,17.40
2020,07,31,06,52,17.40
2020,07,31,06,53,17.40
2020,07,31,06,54,17.40
2020,07,31,06,55,17.40
2020,07,31,06,56,17.40
2020,07,31,06,57,17.40
2020,07,31,06,58,17.40
2020,07,31,06,59,17.40
2020,07,31,07,00,17.40
2020,07,31,07,01,17.40
2020,07,31,07,02,17.40
2020,07,31,07,03,17.50
2020,07,31,07,04,17.50
2020,07,31,07,05,17.50
2020,07,31,07,06,17.50
2020,07,31,07,07,17.60
2020,07,31,07,08,17.60
2020,07,31,07,09,17.70
2020,07,31,07,10,17.70
2020,07,31,07,11,17.80
2020,07,31,07,12,17.90
2020,07,31,07,13,17.90
2020,07,31,07,14,18.00
2020,07,31,07,15,18.00
2020,07,31,07,16,18.10
2020,07,31,07,17,18.10
2020,07,31,07,18,18.20
2020,07,31,07,19,18.30
2020,07,31,07,20,18.30
2020,07,31,07,21,18.40
2020,07,31,07,22,18.40
2020,07,31,07,23,18.40
2020,07,31,07,24,18.50
2020,07,31,07,25,18.50
2020,07,31,07,26,18.60
2020,07,31,07,27,18.60
2020,07,31,07,28,18.60
2020,07,31,07,29,18.70
2020,07,31,07,30,18.70
2020,07,31,07,31,18.70
2020,07,31,07,32,18.70
2020,07,31,07,33,18.80
2020,07,31,07,34,18.80
2020,07,31,07,35,18.80
2020,07,31,07,36,18.80
2020,07,31,07,37,18.80
2020,07,31,07,38,18.80
2020,07,31,07,39,18.90
2020,07,31,07,40,18.90
2020,07,31,07,41,18.90
2020,07,31,07,42,19.00
2020,07,31,07,43,19.00
2020,07,31,07,44,19.10
2020,07,31,07,45,19.10
2020,07,31,07,46,19.10
2020,07,31,07,47,19.20
2020,07,31,07,48,19.20
2020,07,31,07,49,19.20
2020,07,31,07,50,19.30
2020,07,31,07,51,19.40
2020,07,31,07,52,19.50
2020,07,31,07,53,19.60
2020,07,31,07,54,19.60
2020,07,31,07,55,19.70
2020,07,31,07,56,19.70
2020,07,31,07,57,19.70
2020,07,31,07,58,19.80
2020,07,31,07,59,19.80
2020,07,31,08,00,19.80
2020,07,31,08,01,19.90
2020,07,31,08,02,19.90
2020,07,31,08,03,20.00
2020,07,31,08,04,20.10
2020,07,31,08,05,20.10
2020,07,31,08,06,20.20
2020,07,31,08,07,20.20
2020,07,31,08,08,20.30
2020,07,31,08,09,20.40
2020,07,31,08,10,20.40
2020,07,31,08,11,20.50
2020,07,31,08,12,20.60
2020,07,31,08,13,20.60
2020,07,31,08,14,20.70
2020,07,31,08,15,20.70
2020,07,31,08,16,20.80
2020,07,31,08,17,20.80
2020,07,31,08,18,20.80
2020,07,31,08,19,20.90
2020,07,31,08,20,20.90
2020,07,31,08,21,21.00
2020,07,31,08,22,21.10
2020,07,31,08,23,21.10
2020,07,31,08,24,21.10
2020,07,31,08,25,21.20
2020,07,31,08,26,21.20
2020,07,31,08,27,21.30
2020,07,31,08,28,21.30
2020,07,31,08,29,21.40
2020,07,31,08,30,21.40
2020,07,31,08,31,21.40
2020,07,31,08,32,21.50
2020,07,31,08,33,21.60
2020,07,31,08,34,21.60
2020,07,31,08,35,21.60
2020,07,31,08,36,21.60
2020,07,31,08,37,21.60
2020,07,31,08,38,21.60
2020,07,31,08,39,21.70
2020,07,31,08,40,21.70
2020,07,31,08,41,21.70
2020,07,31,08,42,21.70
2020,07,31,08,43,21.70
2020,07,31,08,44,21.70
2020,07,31,08,45,21.70
2020,07,31,08,46,21.70
2020,07,31,08,47,21.70
2020,07,31,08,48,21.70
2020,07,31,08,49,21.60
2020,07,31,08,50,21.60
2020,07,31,08,51,21.50
2020,07,31,08,52,21.50
2020,07,31,08,53,21.50
2020,07,31,08,54,21.40
2020,07,31,08,55,21.40
2020,07,31,08,56,21.40
2020,07,31,08,57,21.40
2020,07,31,08,58,21.40
2020,07,31,08,59,21.40
2020,07,31,09,00,21.40
2020,07,31,09,01,21.50
2020,07,31,09,02,21.50
2020,07,31,09,03,21.60
2020,07,31,09,04,21.60
2020,07,31,09,05,21.70
2020,07,31,09,06,21.70
2020,07,31,09,07,21.70
2020,07,31,09,08,21.70
2020,07,31,09,09,21.80
2020,07,31,09,10,21.80
2020,07,31,09,11,21.80
2020,07,31,09,12,21.80
2020,07,31,09,13,21.90
2020,07,31,09,14,21.90
2020,07,31,09,15,22.00
2020,07,31,09,16,22.10
2020,07,31,09,17,22.20
2020,07,31,09,18,22.20
2020,07,31,09,19,22.30
2020,07,31,09,20,22.40
2020,07,31,09,21,22.40
2020,07,31,09,22,22.50
2020,07,31,09,23,22.50
2020,07,31,09,24,22.60
2020,07,31,09,25,22.70
2020,07,31,09,26,22.70
2020,07,31,09,27,22.80
2020,07,31,09,28,22.80
2020,07,31,09,29,22.90
2020,07,31,09,30,22.90
2020,07,31,09,31,22.90
2020,07,31,09,32,22.90
2020,07,31,09,33,23.00
2020,07,31,09,34,23.00
2020,07,31,09,35,23.00
2020,07,31,09,36,23.00
2020,07,31,09,37,23.00
2020,07,31,09,38,23.10
2020,07,31,09,39,23.10
2020,07,31,09,40,23.10
2020,07,31,09,41,23.10
2020,07,31,09,42,23.10
2020,07,31,09,43,23.10
2020,07,31,09,44,23.10
2020,07,31,09,45,23.10
2020,07,31,09,46,23.10
2020,07,31,09,47,23.10
2020,07,31,09,48,23.10
2020,07,31,09,49,23.10
2020,07,31,09,50,23.10
2020,07,31,09,51,23.20
2020,07,31,09,52,23.30
2020,07,31,09,53,23.30
2020,07,31,09,54,23.40
2020,07,31,09,55,23.50
2020,07,31,09,56,23.50
2020,07,31,09,57,23.60
2020,07,31,09,58,23.60
2020,07,31,09,59,23.60
2020,07,31,10,00,23.60
2020,07,31,10,01,23.60
2020,07,31,10,02,23.60
2020,07,31,10,03,23.70
2020,07,31,10,04,23.70
2020,07,31,10,05,23.80
2020,07,31,10,06,23.80
2020,07,31,10,07,23.80
2020,07,31,10,08,23.80
2020,07,31,10,09,23.80
2020,07,31,10,10,23.80
2020,07,31,10,11,23.90
2020,07,31,10,12,23.90
2020,07,31,10,13,23.90
2020,07,31,10,14,23.90
2020,07,31,10,15,24.00
2020,07,31,10,16,24.00
2020,07,31,10,17,24.00
2020,07,31,10,18,24.00
2020,07,31,10,19,23.90
2020,07,31,10,20,23.80
2020,07,31,10,21,23.70
2020,07,31,10,22,23.60
2020,07,31,10,23,23.40
2020,07,31,10,24,23.40
2020,07,31,10,25,23.30
2020,07,31,10,26,23.30
2020,07,31,10,27,23.30
2020,07,31,10,28,23.30
2020,07,31,10,29,23.30
2020,07,31,10,30,23.30
2020,07,31,10,31,23.40
2020,07,31,10,32,23.40
2020,07,31,10,33,23.40
2020,07,31,10,34,23.40
2020,07,31,10,35,23.40
2020,07,31,10,36,23.50
2020,07,31,10,37,23.50
2020,07,31,10,38,23.60
2020,07,31,10,39,23.60
2020,07,31,10,40,23.70
2020,07,31,10,41,23.70
2020,07,31,10,42,23.80
2020,07,31,10,43,23.90
2020,07,31,10,44,24.00
2020,07,31,10,45,24.00
2020,07,31,10,46,24.00
2020,07,31,10,47,24.10
2020,07,31,10,48,24.10
2020,07,31,10,49,24.10
2020,07,31,10,50,24.20
2020,07,31,10,51,24.20
2020,07,31,10,52,24.30
2020,07,31,10,53,24.40
2020,07,31,10,54,24.40
2020,07,31,10,55,24.50
2020,07,31,10,56,24.50
2020,07,31,10,57,24.50
2020,07,31,10,58,24.50
2020,07,31,10,59,24.50
2020,07,31,11,00,24.60
2020,07,31,11,01,24.60
2020,07,31,11,02,24.70
2020,07,31,11,03,24.70
2020,07,31,11,04,24.70
2020,07,31,11,05,24.80
2020,07,31,11,06,24.80
2020,07,31,11,07,24.90
2020,07,31,11,08,24.90
2020,07,31,11,09,25.00
2020,07,31,11,10,25.10
2020,07,31,11,11,25.10
2020,07,31,11,12,25.20
2020,07,31,11,13,25.20
2020,07,31,11,14,25.30
2020,07,31,11,15,25.40
2020,07,31,11,16,25.40
2020,07,31,11,17,25.50
2020,07,31,11,18,25.60
2020,07,31,11,19,25.60
2020,07,31,11,20,25.70
2020,07,31,11,21,25.60
2020,07,31,11,22,25.60
2020,07,31,11,23,25.50
2020,07,31,11,24,25.50
2020,07,31,11,25,25.50
2020,07,31,11,26,25.50
2020,07,31,11,27,25.50
2020,07,31,11,28,25.60
2020,07,31,11,29,25.60
2020,07,31,11,30,25.70
2020,07,31,11,31,25.80
2020,07,31,11,32,25.90
2020,07,31,11,33,26.00
2020,07,31,11,34,26.20
2020,07,31,11,35,26.30
2020,07,31,11,36,26.40
2020,07,31,11,37,26.50
2020,07,31,11,38,26.60
2020,07,31,11,39,26.60
2020,07,31,11,40,26.60
2020,07,31,11,41,26.70
2020,07,31,11,42,26.80
2020,07,31,11,43,26.90
2020,07,31,11,44,26.90
2020,07,31,11,45,27.00
2020,07,31,11,46,27.00
2020,07,31,11,47,27.00
2020,07,31,11,48,27.10
2020,07,31,11,49,27.10
2020,07,31,11,50,27.20
2020,07,31,11,51,27.20
2020,07,31,11,52,27.10
2020,07,31,11,53,27.10
2020,07,31,11,54,27.20
2020,07,31,11,55,27.10
2020,07,31,11,56,27.20
2020,07,31,11,57,27.10
2020,07,31,11,58,27.10
2020,07,31,11,59,27.10
2020,07,31,12,00,27.00
2020,07,31,12,01,27.00
2020,07,31,12,02,27.00
2020,07,31,12,03,26.90
2020,07,31,12,04,26.70
2020,07,31,12,05,26.60
2020,07,31,12,06,26.50
2020,07,31,12,07,26.60
2020,07,31,12,08,26.60
2020,07,31,12,09,26.60
2020,07,31,12,10,26.60
2020,07,31,12,11,26.60
2020,07,31,12,12,26.70
2020,07,31,12,13,26.70
2020,07,31,12,14,26.70
2020,07,31,12,15,26.60
2020,07,31,12,16,26.70
2020,07,31,12,17,26.70
2020,07,31,12,18,26.70
2020,07,31,12,19,26.90
2020,07,31,12,20,27.00
2020,07,31,12,21,27.10
2020,07,31,12,22,27.20
2020,07,31,12,23,27.30
2020,07,31,12,24,27.40
2020,07,31,12,25,27.50
2020,07,31,12,26,27.60
2020,07,31,12,27,27.70
2020,07,31,12,28,27.70
2020,07,31,12,29,27.70
2020,07,31,12,30,27.60
2020,07,31,12,31,27.50
2020,07,31,12,32,27.40
2020,07,31,12,33,27.40
2020,07,31,12,34,27.30
2020,07,31,12,35,27.10
2020,07,31,12,36,27.10
2020,07,31,12,37,27.00
2020,07,31,12,38,26.90
2020,07,31,12,39,26.80
2020,07,31,12,40,26.70
2020,07,31,12,41,26.70
2020,07,31,12,42,26.60
2020,07,31,12,43,26.50
2020,07,31,12,44,26.40
2020,07,31,12,45,26.30
2020,07,31,12,46,26.10
2020,07,31,12,47,26.00
2020,07,31,12,48,25.90
2020,07,31,12,49,25.90
2020,07,31,12,50,25.80
2020,07,31,12,51,25.80
2020,07,31,12,52,25.60
2020,07,31,12,53,25.40
2020,07,31,12,54,25.20
2020,07,31,12,55,25.10
2020,07,31,12,56,24.90
2020,07,31,12,57,24.80
2020,07,31,12,58,24.80
2020,07,31,12,59,24.70
2020,07,31,13,00,24.70
2020,07,31,13,01,24.70
2020,07,31,13,02,24.70
2020,07,31,13,03,24.80
2020,07,31,13,04,24.80
2020,07,31,13,05,24.80
2020,07,31,13,06,24.90
2020,07,31,13,07,24.90
2020,07,31,13,08,24.80
2020,07,31,13,09,24.90
2020,07,31,13,10,24.90
2020,07,31,13,11,24.90
2020,07,31,13,12,24.90
2020,07,31,13,13,25.00
2020,07,31,13,14,25.00
2020,07,31,13,15,25.00
2020,07,31,13,16,25.00
2020,07,31,13,17,25.10
2020,07,31,13,18,25.00
2020,07,31,13,19,24.90
2020,07,31,13,20,24.90
2020,07,31,13,21,24.90
2020,07,31,13,22,24.90
2020,07,31,13,23,25.00
2020,07,31,13,24,25.10
2020,07,31,13,25,25.20
2020,07,31,13,26,25.20
2020,07,31,13,27,25.30
2020,07,31,13,28,25.30
2020,07,31,13,29,25.20
2020,07,31,13,30,25.20
2020,07,31,13,31,25.20
2020,07,31,13,32,25.30
2020,07,31,13,33,25.30
2020,07,31,13,34,25.40
2020,07,31,13,35,25.50
2020,07,31,13,36,25.50
2020,07,31,13,37,25.60
2020,07,31,13,38,25.60
2020,07,31,13,39,25.70
2020,07,31,13,40,25.70
2020,07,31,13,41,25.80
2020,07,31,13,42,25.90
2020,07,31,13,43,25.90
2020,07,31,13,44,25.90
2020,07,31,13,45,25.90
2020,07,31,13,46,25.80
2020,07,31,13,47,25.80
2020,07,31,13,48,25.80
2020,07,31,13,49,25.70
2020,07,31,13,50,25.60
2020,07,31,13,51,25.60
2020,07,31,13,52,25.60
2020,07,31,13,53,25.40
2020,07,31,13,54,25.30
2020,07,31,13,55,25.20
2020,07,31,13,56,25.10
2020,07,31,13,57,25.20
2020,07,31,13,58,25.20
2020,07,31,13,59,25.30
2020,07,31,14,00,25.30
2020,07,31,14,01,25.30
2020,07,31,14,02,25.40
2020,07,31,14,03,25.60
2020,07,31,14,04,25.80
2020,07,31,14,05,25.90
2020,07,31,14,06,26.10
2020,07,31,14,07,26.20
2020,07,31,14,08,26.30
2020,07,31,14,09,26.40
2020,07,31,14,10,26.40
2020,07,31,14,11,26.50
2020,07,31,14,12,26.60
2020,07,31,14,13,26.70
2020,07,31,14,14,26.70
2020,07,31,14,15,26.60
2020,07,31,14,16,26.60
2020,07,31,14,17,26.80
2020,07,31,14,18,26.90
2020,07,31,14,19,27.10
2020,07,31,14,20,27.40
2020,07,31,14,21,27.50
2020,07,31,14,22,27.70
2020,07,31,14,23,27.80
2020,07,31,14,24,28.00
2020,07,31,14,25,28.10
2020,07,31,14,26,28.20
2020,07,31,14,27,28.30
2020,07,31,14,28,28.30
2020,07,31,14,29,28.40
2020,07,31,14,30,28.30
2020,07,31,14,31,28.20
2020,07,31,14,32,28.20
2020,07,31,14,33,28.10
2020,07,31,14,34,28.10
2020,07,31,14,35,28.10
2020,07,31,14,36,27.90
2020,07,31,14,37,27.80
2020,07,31,14,38,27.80
2020,07,31,14,39,27.80
2020,07,31,14,40,27.80
2020,07,31,14,41,27.80
2020,07,31,14,42,27.90
2020,07,31,14,43,27.90
2020,07,31,14,44,28.00
2020,07,31,14,45,28.10
2020,07,31,14,46,28.10
2020,07,31,14,47,28.20
2020,07,31,14,48,28.20
2020,07,31,14,49,28.10
2020,07,31,14,50,28.00
2020,07,31,14,51,27.90
2020,07,31,14,52,27.90
2020,07,31,14,53,28.00
2020,07,31,14,54,28.10
2020,07,31,14,55,28.10
2020,07,31,14,56,28.10
2020,07,31,14,57,28.10
2020,07,31,14,58,28.10
2020,07,31,14,59,28.10
2020,07,31,15,00,28.00
2020,07,31,15,01,28.00
2020,07,31,15,02,28.00
2020,07,31,15,03,28.10
2020,07,31,15,04,28.10
2020,07,31,15,05,28.20
2020,07,31,15,06,28.30
2020,07,31,15,07,28.40
2020,07,31,15,08,28.40
2020,07,31,15,09,28.30
2020,07,31,15,10,28.40
2020,07,31,15,11,28.30
2020,07,31,15,12,28.20
2020,07,31,15,13,28.20
2020,07,31,15,14,28.30
2020,07,31,15,15,28.30
2020,07,31,15,16,28.20
2020,07,31,15,17,28.10
2020,07,31,15,18,28.20
2020,07,31,15,19,28.20
2020,07,31,15,20,28.10
2020,07,31,15,21,28.10
2020,07,31,15,22,28.10
2020,07,31,15,23,28.10
2020,07,31,15,24,28.00
2020,07,31,15,25,28.00
2020,07,31,15,26,28.00
2020,07,31,15,27,28.00
2020,07,31,15,28,28.00
2020,07,31,15,29,27.90
2020,07,31,15,30,27.90
2020,07,31,15,31,27.90
2020,07,31,15,32,28.00
2020,07,31,15,33,28.10
2020,07,31,15,34,28.00
2020,07,31,15,35,28.10
2020,07,31,15,36,28.10
2020,07,31,15,37,28.20
2020,07,31,15,38,28.20
2020,07,31,15,39,28.20
2020,07,31,15,40,28.10
2020,07,31,15,41,28.00
2020,07,31,15,42,28.00
2020,07,31,15,43,28.00
2020,07,31,15,44,28.10
2020,07,31,15,45,28.20
2020,07,31,15,46,28.10
2020,07,31,15,47,28.10
2020,07,31,15,48,27.90
2020,07,31,15,49,27.80
2020,07,31,15,50,27.90
2020,07,31,15,51,27.90
2020,07,31,15,52,27.90
2020,07,31,15,53,27.90
2020,07,31,15,54,27.80
2020,07,31,15,55,27.80
2020,07,31,15,56,27.70
2020,07,31,15,57,27.70
2020,07,31,15,58,27.70
2020,07,31,15,59,27.70
2020,07,31,16,00,27.70
2020,07,31,16,01,27.70
2020,07,31,16,02,27.70
2020,07,31,16,03,27.70
2020,07,31,16,04,27.70
2020,07,31,16,05,27.70
2020,07,31,16,06,27.60
2020,07,31,16,07,27.50
2020,07,31,16,08,27.40
2020,07,31,16,09,27.30
2020,07,31,16,10,27.30
2020,07,31,16,11,27.40
2020,07,31,16,12,27.40
2020,07,31,16,13,27.40
2020,07,31,16,14,27.30
2020,07,31,16,15,27.30
2020,07,31,16,16,27.20
2020,07,31,16,17,27.20
2020,07,31,16,18,27.20
2020,07,31,16,19,27.30
2020,07,31,16,20,27.20
2020,07,31,16,21,27.30
2020,07,31,16,22,27.40
2020,07,31,16,23,27.40
2020,07,31,16,24,27.40
2020,07,31,16,25,27.40
2020,07,31,16,26,27.50
2020,07,31,16,27,27.50
2020,07,31,16,28,27.50
2020,07,31,16,29,27.60
2020,07,31,16,30,27.60
2020,07,31,16,31,27.50
2020,07,31,16,32,27.50
2020,07,31,16,33,27.60
2020,07,31,16,34,27.60
2020,07,31,16,35,27.70
2020,07,31,16,36,27.70
2020,07,31,16,37,27.70
2020,07,31,16,38,27.70
2020,07,31,16,39,27.70
2020,07,31,16,40,27.70
2020,07,31,16,41,27.70
2020,07,31,16,42,27.80
2020,07,31,16,43,27.80
2020,07,31,16,44,27.90
2020,07,31,16,45,27.80
2020,07,31,16,46,27.70
2020,07,31,16,47,27.60
2020,07,31,16,48,27.50
2020,07,31,16,49,27.40
2020,07,31,16,50,27.40
2020,07,31,16,51,27.40
2020,07,31,16,52,27.30
2020,07,31,16,53,27.20
2020,07,31,16,54,27.20
2020,07,31,16,55,27.10
2020,07,31,16,56,27.10
2020,07,31,16,57,27.10
2020,07,31,16,58,27.00
2020,07,31,16,59,26.90
2020,07,31,17,00,26.90
2020,07,31,17,01,26.90
2020,07,31,17,02,26.80
2020,07,31,17,03,26.80
2020,07,31,17,04,26.80
2020,07,31,17,05,26.70
2020,07,31,17,06,26.80
2020,07,31,17,07,26.70
2020,07,31,17,08,26.70
2020,07,31,17,09,26.70
2020,07,31,17,10,26.60
2020,07,31,17,11,26.60
2020,07,31,17,12,26.60
2020,07,31,17,13,26.60
2020,07,31,17,14,26.60
2020,07,31,17,15,26.60
2020,07,31,17,16,26.50
2020,07,31,17,17,26.40
2020,07,31,17,18,26.40
2020,07,31,17,19,26.30